Probability
0 0 0 0 0 0 0 0 0 0 0 6 16 39 52 48 74 77 77 87 87 84 81 81 84 77 74 77 84 84 87 87 87 84 87 90 84 87 77 74 68 65 55 45
0 0 0 0 0 0 0 0 0 0 6 10 16 42 58 65 77 87 81 77 84 74 71 71 68 68 65 71 68 68 71 68 65 71 77 74 71 68 58 55 58 52 32 32
0 0 0 0 0 0 0 0 0 0 6 6 10 35 45 61 58 71 68 71 71 68 71 61 55 48 39 42 42 35 52 52 58 61 58 48 55 48 48 45 52 45 23 29
0 0 0 0 0 0 0 0 0 0 0 6 3 19 42 45 45 65 65 61 58 58 48 48 39 29 29 26 26 29 29 35 39 35 42 32 29 16 23 32 23 29 16 19
0 0 0 0 0 0 0 0 0 0 0 0 0 0 35 35 48 58 52 42 45 35 29 26 23 16 13 10 13 19 29 23 26 32 35 39 16 13 13 13 16 16 16 16
0 0 0 0 0 0 0 0 0 0 0 0 0 0 3 23 39 48 55 42 29 23 13 13 10 10 6 3 6 10 19 29 39 39 32 35 32 29 16 6 10 10 13 10
0 0 0 0 0 0 0 0 0 0 0 0 0 0 13 26 35 35 29 19 16 19 13 10 3 3 3 3 10 13 23 35 35 45 42 39 26 29 16 0 0 3 3 6
0 0 0 0 0 0 0 0 0 0 0 0 0 3 26 23 23 23 26 16 16 16 6 6 6 6 6 3 13 13 16 23 19 29 26 26 13 0 0 0 0 0 3 0
0 0 0 0 0 0 0 0 0 0 0 0 0 10 10 19 13 10 13 10 6 3 3 3 3 0 0 0 10 6 6 13 13 13 10 13 10 3 0 0 0 0 0 0
0 0 0 0 0 0 0 0 0 3 6 0 0 0 16 6 3 0 0 3 0 0 0 0 0 3 0 0 3 3 6 3 3 3 3 0 3 3 0 0 0 0 3 3
0 0 0 0 0 0 0 0 0 0 0 0 0 0 3 3 3 3 0 0 0 0 0 0 0 0 0 0 0 0 0 0 0 0 3 3 0 3 0 3 0 3 3 3
0 0 0 0 0 0 0 0 0 3 0 0 0 0 0 0 0 0 0 0 0 0 0 0 0 0 0 0 0 0 0 0 0 0 0 0 0 0 0 0 0 0 0 3
0 3 0 0 0 0 0 0 0 0 0 0 0 0 0 0 0 0 0 0 0 0 0 0 0 0 0 0 0 0 0 0 0 0 0 0 0 0 0 0 0 0 0 0
0 3 0 0 0 0 0 0 0 0 0 0 0 0 0 0 0 0 0 0 0 0 0 0 0 0 0 0 0 0 0 0 0 0 0 0 0 0 0 0 0 0 0 0
0 0 3 0 0 0 0 0 0 0 0 0 0 0 0 0 0 0 0 0 0 0 0 0 0 0 0 0 0 0 0 0 0 0 0 0 0 0 0 0 0 0 0 0
0 0 6 0 0 0 0 0 0 0 0 0 0 0 0 0 0 0 0 0 0 0 0 0 0 0 0 0 0 0 0 0 0 0 0 0 0 0 0 0 0 0 0 0
3 26 23 3 0 0 0 0 0 0 0 0 0 0 0 0 0 0 0 0 0 0 0 0 0 0 0 0 0 0 0 0 0 0 0 0 0 0 0 0 0 0 0 0
6 32 74 6 10 0 0 0 0 0 0 0 0 0 0 0 0 0 0 0 0 0 0 0 0 0 0 0 0 0 0 0 0 0 0 0 0 0 0 0 0 0 0 0
10 29 10 6 0 0 0 0 0 0 0 0 0 0 0 0 0 0 0 0 0 0 0 0 0 0 0 0 0 0 0 0 0 0 0 0 0 0 0 0 0 0 0 0
10 42 10 3 0 0 0 0 0 0 0 0 0 0 0 0 0 0 0 0 0 0 0 0 0 0 0 0 0 0 0 0 0 0 0 0 0 0 0 0 0 0 0 0
6 32 16 16 10 0 0 0 0 0 0 0 0 0 0 0 0 0 0 0 0 0 0 0 0 0 0 0 0 0 0 0 0 0 0 0 0 0 0 0 0 0 0 0
0 0 10 3 0 0 0 0 0 0 0 0 0 0 0 0 0 0 0 0 0 0 0 0 0 0 0 0 0 0 0 0 0 0 0 0 0 0 0 0 0 0 0 0
0 0 0 0 0 0 0 0 0 0 0 0 0 0 0 0 0 0 0 0 0 0 0 0 0 0 0 0 0 0 0 0 0 0 0 0 0 0 0 0 0 0 3 0
0 0 0 0 0 0 0 0 0 0 0 0 0 0 0 0 0 0 0 0 0 0 0 0 0 0 0 0 0 0 0 0 0 0 0 0 0 0 0 3 0 0 0 0
0 0 0 3 0 0 0 0 0 0 0 0 0 0 0 0 0 0 0 0 0 0 0 0 0 0 0 0 0 0 0 0 0 0 0 0 0 0 0 0 0 0 0 0
0 0 0 0 0 0 0 0 0 0 0 0 0 0 0 0 0 0 0 0 0 0 0 0 0 0 0 0 0 0 0 0 0 0 0 0 0 0 0 0 0 0 0 0
Height
5865 5866 5865 5865 5867 5867 5867 5867 5866 5866 5866 5867 5866 5864 5862 5860 5859 5859 5859 5859 5859 5858 5857 5856 5856 5855 5854 5852 5851 5849 5847 5845 5843 5840 5837 5834 5832 5829 5826 5824 5822 5819 5817 5815
5867 5866 5865 5864 5865 5865 5866 5866 5865 5863 5863 5863 5862 5859 5857 5854 5855 5854 5854 5854 5854 5854 5853 5852 5851 5850 5848 5847 5845 5843 5841 5838 5835 5832 5830 5827 5824 5821 5818 5816 5814 5812 5810 5807
5866 5866 5865 5864 5864 5864 5864 5864 5863 5861 5861 5859 5858 5855 5851 5849 5850 5851 5851 5851 5850 5850 5848 5847 5846 5844 5842 5841 5838 5836 5834 5831 5828 5825 5821 5818 5815 5812 5810 5807 5805 5803 5801 5799
5865 5864 5864 5863 5862 5862 5861 5860 5859 5858 5857 5855 5855 5849 5844 5844 5846 5848 5848 5848 5847 5846 5844 5842 5840 5839 5836 5834 5832 5829 5826 5823 5820 5816 5813 5809 5806 5803 5800 5798 5796 5794 5792 5790
5864 5863 5863 5862 5862 5860 5859 5859 5858 5856 5853 5851 5848 5843 5838 5837 5841 5844 5845 5845 5843 5842 5840 5838 5835 5833 5830 5828 5825 5822 5819 5815 5812 5808 5804 5800 5797 5793 5790 5787 5785 5784 5781 5780
5863 5863 5862 5862 5861 5860 5859 5858 5856 5854 5851 5847 5843 5841 5837 5837 5839 5841 5841 5841 5840 5838 5835 5833 5830 5827 5824 5821 5817 5814 5810 5807 5803 5799 5795 5790 5786 5782 5779 5776 5774 5772 5770 5768
5861 5861 5862 5861 5861 5860 5859 5857 5854 5851 5847 5844 5842 5840 5837 5838 5839 5839 5838 5837 5835 5833 5831 5827 5824 5821 5818 5814 5810 5806 5802 5798 5793 5789 5784 5780 5775 5771 5768 5765 5762 5760 5758 5756
5860 5861 5861 5861 5860 5858 5858 5856 5854 5851 5846 5841 5839 5836 5834 5836 5838 5837 5836 5834 5832 5829 5826 5822 5818 5814 5810 5806 5802 5797 5792 5788 5783 5778 5774 5769 5764 5760 5756 5753 5750 5747 5745 5743
5861 5861 5861 5860 5859 5858 5857 5856 5855 5853 5849 5844 5840 5838 5835 5837 5837 5836 5834 5832 5829 5825 5821 5817 5812 5808 5803 5798 5793 5788 5782 5777 5772 5767 5762 5758 5753 5748 5744 5741 5737 5734 5732 5729
5863 5861 5861 5860 5859 5857 5856 5854 5853 5851 5850 5848 5844 5840 5839 5837 5836 5834 5831 5828 5825 5821 5816 5811 5806 5801 5796 5790 5785 5779 5773 5767 5761 5755 5750 5745 5741 5736 5732 5728 5725 5721 5719 5716
5862 5861 5861 5859 5857 5856 5855 5853 5851 5850 5848 5847 5846 5842 5838 5836 5834 5832 5829 5825 5821 5816 5811 5806 5800 5794 5789 5782 5776 5769 5763 5756 5750 5744 5739 5734 5729 5724 5719 5715 5712 5708 5704 5702
5860 5860 5858 5856 5854 5854 5853 5851 5850 5849 5847 5846 5845 5842 5836 5833 5831 5829 5825 5821 5816 5811 5806 5800 5794 5788 5781 5774 5767 5760 5753 5747 5740 5733 5727 5722 5716 5711 5706 5701 5697 5692 5689 5686
5859 5859 5858 5855 5853 5853 5852 5850 5849 5847 5846 5845 5844 5841 5834 5831 5828 5825 5821 5817 5811 5806 5800 5794 5787 5780 5773 5766 5759 5751 5744 5736 5729 5722 5716 5710 5704 5698 5692 5687 5681 5676 5672 5669
5858 5857 5857 5857 5854 5853 5852 5850 5848 5846 5844 5843 5841 5838 5833 5829 5826 5821 5817 5812 5806 5800 5794 5787 5780 5773 5765 5757 5749 5741 5734 5726 5719 5712 5704 5698 5691 5684 5678 5672 5666 5660 5655 5651
5856 5856 5855 5854 5853 5852 5851 5848 5846 5844 5842 5840 5838 5834 5828 5825 5821 5817 5812 5807 5801 5794 5788 5780 5773 5764 5756 5748 5740 5732 5724 5716 5708 5701 5693 5686 5678 5671 5663 5657 5650 5644 5638 5633
5854 5854 5853 5852 5851 5850 5848 5846 5844 5841 5839 5836 5833 5830 5825 5821 5816 5812 5807 5802 5796 5789 5782 5774 5765 5756 5747 5739 5731 5722 5714 5706 5698 5690 5682 5673 5665 5658 5650 5642 5635 5628 5622 5616
5852 5851 5851 5850 5848 5847 5846 5844 5841 5838 5836 5833 5829 5826 5821 5817 5812 5807 5803 5797 5790 5783 5774 5766 5757 5747 5738 5730 5721 5713 5705 5696 5688 5679 5670 5661 5653 5645 5636 5628 5620 5613 5605 5599
5850 5849 5848 5847 5846 5844 5844 5840 5838 5835 5832 5829 5825 5821 5817 5812 5807 5801 5797 5790 5783 5775 5767 5758 5749 5739 5730 5721 5713 5704 5695 5686 5677 5668 5659 5650 5641 5632 5624 5615 5606 5598 5590 5583
5848 5847 5846 5844 5843 5842 5839 5836 5835 5832 5828 5825 5821 5817 5813 5808 5803 5795 5790 5783 5776 5768 5759 5750 5741 5731 5722 5713 5704 5695 5686 5677 5667 5658 5648 5639 5630 5621 5612 5602 5593 5584 5577 5570
5845 5844 5843 5841 5839 5838 5836 5832 5831 5828 5822 5820 5815 5812 5807 5803 5798 5793 5785 5778 5770 5762 5752 5743 5733 5724 5715 5706 5696 5687 5678 5668 5658 5648 5639 5629 5619 5610 5600 5591 5581 5573 5565 5558
5842 5841 5839 5837 5836 5835 5829 5828 5827 5824 5820 5815 5810 5807 5802 5797 5793 5787 5779 5772 5764 5755 5745 5736 5726 5717 5707 5698 5689 5679 5670 5660 5650 5640 5630 5620 5610 5600 5590 5581 5572 5563 5555 5548
5840 5838 5836 5834 5832 5832 5826 5823 5821 5819 5814 5810 5806 5802 5797 5792 5786 5780 5773 5765 5757 5748 5739 5729 5720 5710 5700 5691 5682 5673 5663 5653 5643 5633 5622 5612 5602 5592 5582 5573 5564 5556 5548 5541
5836 5835 5833 5831 5829 5825 5821 5818 5815 5812 5809 5805 5801 5797 5792 5787 5781 5774 5767 5759 5751 5742 5733 5723 5714 5704 5694 5685 5675 5666 5656 5646 5636 5626 5616 5605 5595 5585 5575 5567 5558 5550 5543 5536
5832 5829 5827 5825 5823 5819 5816 5812 5809 5806 5803 5799 5795 5791 5786 5781 5775 5768 5761 5753 5745 5736 5727 5717 5708 5698 5689 5679 5669 5660 5650 5640 5631 5620 5610 5599 5589 5580 5570 5561 5553 5546 5538 5532
5828 5824 5821 5819 5816 5813 5810 5807 5804 5800 5797 5793 5789 5785 5780 5775 5769 5762 5755 5747 5739 5730 5721 5711 5702 5692 5683 5674 5664 5655 5645 5636 5626 5615 5605 5595 5585 5576 5566 5558 5550 5542 5535 5529
5822 5819 5816 5814 5811 5808 5805 5801 5798 5795 5791 5788 5784 5779 5774 5768 5763 5756 5749 5741 5732 5724 5715 5706 5696 5687 5678 5669 5659 5650 5640 5631 5621 5612 5602 5592 5582 5573 5563 5555 5547 5540 5533 5527
Wind_Speed
5 6 5 5 7 8 8 8 9 10 14 16 18 20 21 21 20 21 20 20 20 20 21 23 24 26 27 29 31 34 36 38 39 39 40 40 40 40 40 40 40 39 38 37
8 9 6 5 8 8 9 10 10 13 17 16 17 18 19 18 17 17 17 17 18 20 21 23 24 26 28 30 32 34 35 36 38 39 40 40 40 40 39 39 38 38 37 37
9 10 8 8 8 8 9 12 13 15 16 16 15 18 19 17 13 13 14 15 17 18 20 22 24 25 27 29 31 33 35 36 38 39 39 39 39 39 40 39 38 38 38 37
9 7 8 9 8 9 11 11 12 13 14 15 17 21 19 16 10 10 12 14 16 17 19 20 22 24 26 28 30 32 34 35 36 37 38 38 39 40 40 40 40 39 39 38
6 6 8 9 9 9 10 10 11 13 16 19 20 21 19 13 9 10 11 14 17 19 21 22 24 25 27 29 30 32 33 34 35 37 38 40 41 42 42 42 41 41 41 40
3 3 6 8 9 8 8 10 13 15 18 20 18 17 15 13 15 14 16 17 19 21 23 24 25 26 28 29 31 32 33 35 36 38 40 41 42 43 43 43 43 43 43 42
4 4 4 6 9 8 7 11 16 16 16 13 10 13 11 11 16 18 20 21 22 23 25 26 27 28 29 31 32 34 36 37 39 40 41 42 43 44 44 44 44 44 44 44
8 7 6 7 9 9 7 10 15 17 20 17 11 13 8 11 17 19 21 22 24 25 27 28 30 31 32 34 36 37 39 40 41 42 42 43 44 44 45 45 45 45 45 45
9 8 8 9 10 9 8 8 10 12 15 17 19 20 16 15 19 21 23 24 25 27 29 31 32 34 35 37 39 40 41 42 43 44 43 43 43 44 44 44 45 45 45 45
9 7 7 9 10 11 11 10 10 9 10 12 18 21 21 22 22 23 25 26 28 29 31 33 35 36 37 39 41 42 44 45 45 44 44 43 43 43 44 44 45 46 46 47
9 7 6 7 9 10 11 12 11 10 9 8 14 21 22 23 23 24 26 28 29 31 33 35 36 38 39 41 43 44 45 45 45 45 45 44 44 44 45 45 46 47 47 48
8 7 7 10 8 8 10 12 12 12 10 10 11 21 23 24 24 25 27 29 31 33 34 36 37 39 41 43 44 44 45 45 45 45 44 44 44 45 46 47 48 48 48 49
8 8 8 12 13 10 11 13 13 12 11 10 10 20 26 27 26 27 29 30 32 34 35 37 39 41 43 44 44 44 45 45 45 45 45 46 46 47 48 48 48 48 49 50
9 8 8 9 12 12 12 14 15 14 13 13 15 20 25 26 26 28 29 31 33 35 37 39 41 43 44 45 45 45 45 45 45 46 46 47 48 49 49 48 49 49 50 50
9 9 9 9 10 11 14 15 15 16 16 16 18 21 25 26 27 28 30 31 34 36 39 41 43 45 45 45 45 45 45 45 46 46 47 48 48 48 48 49 49 49 49 49
10 9 10 10 11 12 14 16 17 18 19 19 21 23 25 26 28 29 30 32 34 37 40 43 45 46 46 46 45 45 45 46 46 47 48 48 48 48 48 48 48 49 49 48
12 11 11 10 11 13 15 17 20 20 21 23 24 25 26 26 28 30 31 33 36 39 42 45 47 47 47 46 46 45 46 46 47 48 49 48 48 47 47 48 48 48 47 46
12 13 13 12 12 14 17 18 20 22 23 24 24 25 26 28 30 33 33 36 39 42 45 47 48 48 47 47 46 46 46 47 48 49 48 47 47 47 48 48 48 46 45 43
14 13 14 14 13 13 19 20 20 23 25 23 23 25 26 28 30 35 36 39 42 44 46 48 48 48 47 47 47 47 47 47 48 48 48 47 47 47 47 47 46 44 43 41
16 15 15 15 15 15 19 21 21 25 28 24 26 27 28 30 31 34 37 40 43 45 48 48 48 48 48 47 47 47 47 48 48 47 47 47 47 47 46 45 44 42 40 38
19 17 16 17 16 18 23 24 24 26 28 28 28 29 30 31 33 36 38 42 45 47 48 48 49 48 48 48 47 47 47 48 47 47 47 47 47 46 44 42 40 38 36 35
17 18 19 19 19 22 26 28 27 26 27 27 28 29 31 32 34 37 40 43 46 47 47 48 48 48 48 47 47 47 47 47 47 47 47 46 45 43 42 40 37 35 33 32
18 19 20 21 24 26 28 28 28 27 27 28 28 30 31 33 35 38 41 44 46 47 47 48 48 48 47 47 46 46 46 46 46 46 46 44 42 42 40 38 35 33 31 30
20 24 23 22 23 26 27 28 27 27 27 28 29 30 32 34 37 39 42 44 46 47 47 48 47 47 46 46 46 46 46 45 45 45 44 42 41 40 39 36 34 31 30 28
21 25 26 25 25 25 26 27 27 28 28 29 30 32 33 35 38 40 43 45 46 47 47 47 47 47 46 45 45 45 45 44 44 44 43 41 40 39 37 34 32 30 29 26
21 23 25 26 26 26 27 27 27 28 29 30 31 33 35 37 39 41 44 45 46 47 47 47 46 46 46 45 44 44 43 43 42 42 41 40 39 37 35 33 31 30 27 24
Wind_Direction
338 328 317 322 296 281 276 271 267 260 261 270 276 275 274 275 279 281 282 280 279 279 280 279 279 280 280 281 281 282 286 287 288 290 291 291 292 292 292 290 291 291 291 290
320 302 312 306 292 277 267 263 259 261 271 275 275 272 273 272 276 283 286 285 284 283 282 281 281 280 281 282 283 285 287 288 289 290 291 291 291 290 290 290 290 290 289 289
296 299 311 301 293 281 258 255 252 262 270 274 270 269 268 266 272 284 291 292 290 289 287 286 286 287 286 286 286 287 289 290 290 292 292 291 290 289 289 289 289 289 287 286
295 296 296 292 285 282 274 260 259 270 275 278 276 269 272 269 282 291 296 296 296 297 296 294 293 293 292 292 292 291 293 293 293 293 293 292 292 291 290 289 289 288 287 285
304 318 315 311 299 288 289 289 273 267 264 262 265 271 279 291 304 312 312 308 305 304 303 301 300 298 297 297 297 297 297 297 296 295 295 294 294 293 292 290 289 287 286 284
332 326 324 318 311 300 295 293 284 277 267 267 267 279 296 320 328 323 323 317 312 309 308 307 305 304 303 302 302 302 302 301 300 299 298 297 296 294 293 291 290 288 286 283
315 315 312 315 309 301 300 304 305 311 311 300 292 282 288 338 337 332 326 320 317 315 314 312 310 309 308 307 306 306 305 304 303 302 300 299 297 295 294 292 290 288 286 284
347 342 328 326 320 319 314 314 323 328 328 330 328 312 316 346 338 330 323 319 318 316 315 314 314 313 312 311 311 310 309 308 306 305 303 301 299 297 295 293 291 289 287 285
328 331 332 335 332 326 321 314 315 324 333 333 336 334 336 336 332 326 322 320 319 319 318 318 317 316 315 314 313 312 311 310 309 307 305 303 300 299 297 294 292 290 288 285
309 318 328 329 333 333 329 323 317 318 326 336 332 327 330 327 325 323 321 321 321 321 320 320 319 318 317 316 315 314 313 312 311 309 306 304 302 300 298 296 293 291 288 285
302 306 313 315 318 321 320 316 314 311 309 319 324 314 316 318 319 320 320 321 322 322 322 321 321 320 319 318 317 315 314 313 312 310 308 305 303 302 300 297 295 292 289 285
290 291 288 284 280 303 319 321 320 318 321 327 326 307 313 316 320 321 321 321 321 322 322 322 322 321 320 319 317 316 315 314 313 311 309 307 305 303 302 299 296 293 290 286
298 293 304 317 323 333 337 328 324 320 320 322 317 304 311 315 320 321 321 322 322 323 324 324 324 323 322 320 318 317 316 315 314 313 310 308 306 305 303 301 298 295 292 288
294 289 290 308 321 323 319 319 319 319 315 309 301 300 303 313 319 320 321 322 323 325 326 326 326 325 323 322 320 319 317 316 315 314 312 310 308 307 305 302 299 297 294 290
292 290 291 292 298 303 307 311 315 316 314 310 309 308 309 318 321 322 324 325 325 326 327 327 327 326 325 324 322 320 319 317 316 315 313 312 310 308 306 304 302 300 297 292
297 294 296 299 300 301 309 313 314 315 316 315 314 312 315 320 321 322 325 326 326 327 328 329 329 328 327 325 324 322 320 319 318 317 316 314 312 311 309 308 305 303 299 295
299 301 301 300 298 306 308 308 311 315 316 315 314 314 317 319 320 322 327 327 327 329 331 332 331 330 328 327 326 323 322 321 320 319 318 316 315 314 312 311 308 306 302 298
299 303 303 301 299 304 302 305 308 311 311 313 315 316 318 320 321 323 328 329 331 332 333 333 332 331 330 329 328 325 324 323 323 322 321 319 318 317 316 314 312 309 305 300
304 304 303 301 299 297 298 302 307 310 310 314 314 315 317 320 323 324 329 332 333 333 333 333 332 332 331 331 330 328 327 326 325 324 323 321 320 320 319 318 316 312 309 305
303 303 302 304 304 306 294 300 311 311 310 317 317 319 320 321 323 325 329 331 332 333 333 333 333 333 332 332 331 330 329 329 328 327 326 324 323 323 322 321 319 317 314 310
299 307 309 309 309 302 295 305 307 308 311 315 316 317 318 320 323 326 329 331 333 334 334 334 334 334 333 333 333 332 332 331 330 330 329 328 327 326 325 325 324 323 320 317
293 295 296 299 297 288 298 303 306 308 309 310 312 314 317 321 324 327 329 331 333 335 335 335 335 335 334 334 334 334 334 334 333 333 332 331 331 330 330 329 329 327 326 323
291 292 292 291 291 294 297 300 304 307 308 310 312 315 318 322 325 327 330 332 334 335 336 336 336 336 336 335 336 336 336 336 336 336 335 335 334 334 333 333 333 332 329 328
285 292 297 297 294 294 298 302 304 306 309 311 314 316 319 322 325 328 330 332 334 336 336 337 337 338 337 337 337 337 338 338 339 339 339 338 338 337 337 337 337 337 335 333
286 290 296 300 299 299 302 303 306 309 311 313 315 317 320 323 326 328 330 333 335 336 336 338 338 339 339 338 338 339 339 340 341 341 342 342 341 341 341 341 341 341 340 340
288 289 292 297 300 302 304 306 308 309 311 313 315 317 320 322 325 328 330 333 334 336 337 338 339 340 340 340 339 340 341 341 342 343 344 345 345 345 345 346 345 345 345 345